Location: Bear Valley Community Church - Hurst
(32.8460°N, 97.1828°W)
Time: 08:18:39
(UTC+00:00)

X-37B - Pass Details

Date: 25 May 2022
Orbit: 328 x 343 km, 45.0° (Epoch: 28 June)

Event Time Altitude Azimuth Distance (km) Brightness Sun altitude
Rises 02:16:25 0° 283° (WNW) 2,085 5.8 -9.8°
Reaches altitude 10° 02:19:12 10° 252° (WSW) 1,244 3.7 -10.3°
Maximum altitude 02:20:30 13° 224° (SW) 1,107 3.0 -10.6°
Drops below altitude 10° 02:21:49 10° 196° (SSW) 1,239 3.0 -10.8°
Enters shadow 02:22:51 - 180° (S) 1,493 3.2 -11.0°
